• In Österreich
  • Länderverzeichnis
  • Für 7 Tage
  • Wassertemperatur
  • Satellitenkarten
  • Wetterkarte
  • News
  • Widgets
  • user-avatar
    Anmelden

    Stündliche Wetter Mingachevir

    Heute, 23 Mai, Mittwoch

    Zeit Temperatur Niederschläge Wind Luftdruck Luftfeuchtigkeit
    00:00 +24°C° 0 mm 2 m/S 756 mmHg 41%
    01:00 +23°C° 0 mm 2 m/S 756 mmHg 40%
    02:00 +23°C° 0 mm 1 m/S 756 mmHg 39%
    03:00 +23°C° 0 mm 1 m/S 756 mmHg 38%
    04:00 +23°C° 0 mm 1 m/S 757 mmHg 38%
    05:00 +23°C° 0 mm 1 m/S 757 mmHg 39%
    06:00 +24°C° 0 mm 1 m/S 757 mmHg 39%
    07:00 +26°C° 0 mm 1 m/S 757 mmHg 35%
    08:00 +28°C° 0 mm 1 m/S 757 mmHg 30%
    09:00 +29°C° 0 mm 2 m/S 757 mmHg 26%
    10:00 +31°C° 0 mm 2 m/S 756 mmHg 24%
    11:00 +32°C° 0 mm 2 m/S 756 mmHg 22%
    12:00 +34°C° 0 mm 2 m/S 756 mmHg 20%
    13:00 +34°C° 0 mm 3 m/S 755 mmHg 20%
    14:00 +35°C° 0 mm 4 m/S 755 mmHg 19%
    15:00 +35°C° 0 mm 5 m/S 755 mmHg 18%
    16:00 +34°C° 0 mm 4 m/S 755 mmHg 21%
    17:00 +33°C° 0 mm 4 m/S 754 mmHg 24%
    18:00 +33°C° 0 mm 4 m/S 754 mmHg 27%
    19:00 +30°C° 0 mm 3 m/S 755 mmHg 29%
    20:00 +27°C° 0 mm 3 m/S 755 mmHg 30%
    21:00 +25°C° 0 mm 3 m/S 755 mmHg 31%
    22:00 +25°C° 0 mm 3 m/S 755 mmHg 31%
    23:00 +24°C° 0 mm 3 m/S 755 mmHg 31%

    Morgen, 24 Mai, Donnerstag

    Zeit Temperatur Niederschläge Wind Luftdruck Luftfeuchtigkeit
    00:00 +22°C° 0 mm 3 m/S 755 mmHg 30%
    01:00 +23°C° 0 mm 2 m/S 755 mmHg 27%
    02:00 +21°C° 0 mm 2 m/S 755 mmHg 24%
    03:00 +21°C° 0 mm 2 m/S 755 mmHg 21%
    04:00 +21°C° 0 mm 2 m/S 755 mmHg 24%
    05:00 +23°C° 0 mm 2 m/S 755 mmHg 26%
    06:00 +23°C° 0 mm 2 m/S 754 mmHg 29%
    07:00 +25°C° 0 mm 2 m/S 754 mmHg 25%
    08:00 +27°C° 0 mm 3 m/S 754 mmHg 22%
    09:00 +29°C° 0 mm 3 m/S 754 mmHg 19%
    10:00 +30°C° 0 mm 2 m/S 753 mmHg 18%
    11:00 +31°C° 0 mm 2 m/S 753 mmHg 17%
    12:00 +32°C° 0 mm 2 m/S 753 mmHg 17%
    13:00 +34°C° 0 mm 2 m/S 752 mmHg 17%
    14:00 +34°C° 0 mm 3 m/S 751 mmHg 17%
    15:00 +35°C° 0 mm 3 m/S 751 mmHg 18%
    16:00 +34°C° 0 mm 3 m/S 751 mmHg 21%
    17:00 +32°C° 0 mm 2 m/S 750 mmHg 24%
    18:00 +31°C° 0 mm 2 m/S 750 mmHg 27%
    19:00 +29°C° 0 mm 2 m/S 750 mmHg 27%
    20:00 +27°C° 0 mm 2 m/S 751 mmHg 28%
    21:00 +26°C° 0 mm 2 m/S 751 mmHg 29%
    22:00 +25°C° 0 mm 2 m/S 751 mmHg 30%
    23:00 +25°C° 0 mm 2 m/S 751 mmHg 31%

    übermorgen, 25 Mai, Freitag

    Zeit Temperatur Niederschläge Wind Luftdruck Luftfeuchtigkeit
    00:00 +24°C° 0 mm 2 m/S 750 mmHg 32%
    01:00 +23°C° 0 mm 2 m/S 750 mmHg 32%
    02:00 +23°C° 0 mm 2 m/S 750 mmHg 33%
    03:00 +23°C° 0 mm 2 m/S 750 mmHg 33%
    04:00 +22°C° 0 mm 3 m/S 750 mmHg 34%
    05:00 +22°C° 0 mm 3 m/S 750 mmHg 36%
    06:00 +24°C° 0 mm 3 m/S 749 mmHg 37%
    07:00 +26°C° 0 mm 3 m/S 749 mmHg 33%
    08:00 +28°C° 0 mm 3 m/S 749 mmHg 29%
    09:00 +30°C° 0 mm 3 m/S 749 mmHg 25%
    10:00 +31°C° 0 mm 3 m/S 749 mmHg 24%
    11:00 +33°C° 0 mm 3 m/S 748 mmHg 23%
    12:00 +34°C° 0 mm 2 m/S 748 mmHg 22%
    13:00 +34°C° 0 mm 2 m/S 747 mmHg 22%
    14:00 +33°C° 0 mm 1 m/S 747 mmHg 22%
    15:00 +34°C° 0 mm 1 m/S 746 mmHg 23%
    16:00 +33°C° 0 mm 1 m/S 746 mmHg 26%
    17:00 +32°C° 0 mm 1 m/S 746 mmHg 30%
    18:00 +32°C° 0 mm 1 m/S 746 mmHg 33%
    19:00 +30°C° 0 mm 1 m/S 747 mmHg 35%
    20:00 +29°C° 0 mm 2 m/S 747 mmHg 36%
    21:00 +27°C° 0 mm 2 m/S 747 mmHg 38%
    22:00 +27°C° 0 mm 2 m/S 747 mmHg 38%
    23:00 +26°C° 0 mm 2 m/S 747 mmHg 39%

    26 Mai, Samstag

    Zeit Temperatur Niederschläge Wind Luftdruck Luftfeuchtigkeit
    00:00 +26°C° 0 mm 2 m/S 747 mmHg 40%
    01:00 +25°C° 0 mm 2 m/S 747 mmHg 40%
    02:00 +25°C° 0 mm 2 m/S 747 mmHg 40%
    03:00 +24°C° 0 mm 2 m/S 747 mmHg 41%
    04:00 +25°C° 0 mm 2 m/S 748 mmHg 41%
    05:00 +25°C° 0 mm 3 m/S 748 mmHg 41%
    06:00 +26°C° 0 mm 3 m/S 748 mmHg 42%
    07:00 +27°C° 0 mm 3 m/S 748 mmHg 38%
    08:00 +29°C° 0 mm 3 m/S 748 mmHg 33%
    09:00 +32°C° 0 mm 4 m/S 748 mmHg 29%
    10:00 +33°C° 0 mm 3 m/S 748 mmHg 28%
    11:00 +33°C° 0 mm 3 m/S 748 mmHg 27%
    12:00 +34°C° 0 mm 2 m/S 748 mmHg 26%
    13:00 +34°C° 0,1 mm 2 m/S 748 mmHg 27%
    14:00 +34°C° 0,1 mm 2 m/S 748 mmHg 28%
    15:00 +33°C° 0,1 mm 1 m/S 748 mmHg 29%
    16:00 +32°C° 0,1 mm 2 m/S 748 mmHg 34%
    17:00 +31°C° 0,1 mm 2 m/S 749 mmHg 39%
    18:00 +30°C° 0,1 mm 2 m/S 749 mmHg 45%
    19:00 +29°C° 0,2 mm 2 m/S 750 mmHg 48%
    20:00 +28°C° 0,2 mm 2 m/S 751 mmHg 51%
    21:00 +27°C° 0,2 mm 2 m/S 752 mmHg 54%
    22:00 +25°C° 0,8 mm 3 m/S 752 mmHg 62%
    23:00 +23°C° 0,8 mm 4 m/S 753 mmHg 69%

    27 Mai, Sonntag

    Zeit Temperatur Niederschläge Wind Luftdruck Luftfeuchtigkeit
    00:00 +22°C° 0,8 mm 4 m/S 753 mmHg 76%
    01:00 +21°C° 1,1 mm 5 m/S 754 mmHg 76%
    02:00 +21°C° 1,1 mm 5 m/S 754 mmHg 76%
    03:00 +20°C° 1,1 mm 5 m/S 755 mmHg 76%
    04:00 +20°C° 0,4 mm 6 m/S 755 mmHg 74%
    05:00 +19°C° 0,4 mm 6 m/S 756 mmHg 72%
    06:00 +18°C° 0,4 mm 7 m/S 756 mmHg 70%
    07:00 +18°C° 0,2 mm 7 m/S 757 mmHg 67%
    08:00 +20°C° 0,2 mm 7 m/S 758 mmHg 64%
    09:00 +20°C° 0,2 mm 8 m/S 758 mmHg 62%
    10:00 +20°C° 0,1 mm 7 m/S 758 mmHg 60%
    11:00 +21°C° 0,1 mm 7 m/S 759 mmHg 59%
    12:00 +21°C° 0,1 mm 7 m/S 759 mmHg 58%
    13:00 +22°C° 0 mm 7 m/S 759 mmHg 56%
    14:00 +22°C° 0 mm 6 m/S 759 mmHg 54%
    15:00 +23°C° 0 mm 5 m/S 759 mmHg 53%
    16:00 +22°C° 0 mm 5 m/S 759 mmHg 54%
    17:00 +22°C° 0 mm 5 m/S 759 mmHg 55%
    18:00 +21°C° 0 mm 4 m/S 759 mmHg 56%
    19:00 +20°C° 0 mm 4 m/S 759 mmHg 59%
    20:00 +19°C° 0 mm 3 m/S 760 mmHg 62%
    21:00 +19°C° 0 mm 3 m/S 760 mmHg 65%
    22:00 +18°C° 0 mm 3 m/S 760 mmHg 67%
    23:00 +17°C° 0 mm 2 m/S 759 mmHg 70%

    28 Mai, Montag

    Zeit Temperatur Niederschläge Wind Luftdruck Luftfeuchtigkeit
    00:00 +17°C° 0 mm 2 m/S 759 mmHg 72%
    01:00 +16°C° 0 mm 1 m/S 759 mmHg 74%
    02:00 +16°C° 0 mm 1 m/S 759 mmHg 76%
    03:00 +15°C° 0 mm 1 m/S 758 mmHg 77%
    04:00 +16°C° 0 mm 1 m/S 758 mmHg 75%
    05:00 +16°C° 0 mm 0 m/S 757 mmHg 72%
    06:00 +16°C° 0 mm 0 m/S 757 mmHg 70%
    07:00 +20°C° 0 mm 1 m/S 757 mmHg 65%
    08:00 +21°C° 0 mm 1 m/S 756 mmHg 60%
    09:00 +23°C° 0 mm 1 m/S 755 mmHg 56%
    10:00 +24°C° 0 mm 1 m/S 755 mmHg 52%
    11:00 +26°C° 0 mm 2 m/S 754 mmHg 48%
    12:00 +27°C° 0 mm 2 m/S 754 mmHg 45%
    13:00 +28°C° 0 mm 2 m/S 753 mmHg 43%
    14:00 +29°C° 0 mm 2 m/S 753 mmHg 41%
    15:00 +30°C° 0 mm 2 m/S 752 mmHg 39%
    16:00 +29°C° 0,1 mm 2 m/S 752 mmHg 41%
    17:00 +29°C° 0,1 mm 2 m/S 753 mmHg 43%
    18:00 +29°C° 0,1 mm 2 m/S 753 mmHg 45%
    19:00 +27°C° 0 mm 3 m/S 753 mmHg 48%
    20:00 +26°C° 0 mm 3 m/S 754 mmHg 52%
    21:00 +24°C° 0 mm 3 m/S 754 mmHg 55%
    22:00 +24°C° 0 mm 3 m/S 755 mmHg 59%
    23:00 +22°C° 0 mm 3 m/S 755 mmHg 64%
    Mehr zeigen